FW6992 Weather Reports


Display with metric or nautical units.
time (UTC)temp
F
wind
direction
speed
MPH
gust
MPH
rain 1hr
in
rain 24hr
in
rain mn
in
humidity
%
barometer
mb
20260508045921 48 311 0.0 0.0 0.00 0.00 0.00 90 1014.5
20260508045418 48 304 0.0 0.0 0.00 0.00 0.00 90 1014.4
20260508044916 48 304 0.0 0.0 0.00 0.00 0.00 90 1014.4
20260508044413 48 134 0.0 0.0 0.00 0.00 0.00 90 1014.4
20260508043908 48 134 0.0 0.0 0.00 0.00 0.00 90 1014.3
20260508043406 48 134 0.0 0.0 0.00 0.00 0.00 90 1014.4
20260508042902 48 140 0.0 0.0 0.00 0.00 0.00 90 1014.2
20260508042400 48 187 0.0 0.0 0.00 0.00 0.00 90 1014.2
20260508041857 48 187 0.0 0.0 0.00 0.00 0.00 89 1014.1
20260508041353 49 187 0.0 0.0 0.00 0.00 0.00 89 1013.8
20260508040849 49 151 0.0 0.0 0.00 0.00 0.00 89 1014.0
20260508040347 49 76 0.0 0.0 0.00 0.00 0.00 89 1013.7
20260508035844 49 76 0.0 0.0 0.00 0.04 0.04 89 1013.8
20260508035341 49 76 0.0 0.0 0.00 0.04 0.04 89 1013.7
20260508034838 49 76 0.0 0.0 0.00 0.04 0.04 89 1013.8
20260508034336 50 76 0.0 0.0 0.00 0.04 0.04 89 1013.7
20260508033832 50 76 0.0 0.0 0.00 0.04 0.04 88 1014.0
20260508033330 50 76 0.0 0.0 0.00 0.04 0.04 88 1014.0
20260508032827 50 76 0.0 0.0 0.00 0.04 0.04 88 1014.0
20260508032325 50 194 0.0 0.0 0.00 0.04 0.04 88 1013.7
20260508031821 50 194 0.0 0.0 0.00 0.04 0.04 88 1013.8
20260508031318 50 194 0.0 0.0 0.00 0.04 0.04 87 1013.8
20260508030814 50 194 0.0 0.0 0.00 0.04 0.04 87 1013.6
20260508030312 51 194 0.0 0.0 0.00 0.04 0.04 87 1013.6
20260508025808 51 194 0.0 0.0 0.00 0.04 0.04 86 1013.4
20260508025306 51 194 0.0 0.0 0.00 0.04 0.04 86 1013.7
20260508024801 51 194 0.0 0.0 0.00 0.04 0.04 86 1013.8
20260508024258 51 194 0.0 0.0 0.00 0.04 0.04 86 1013.7
20260508023756 52 194 0.0 0.0 0.00 0.04 0.04 85 1013.3
20260508023253 52 194 0.0 0.0 0.00 0.04 0.04 85 1013.6
20260508022748 52 194 0.0 0.0 0.00 0.04 0.04 84 1013.3
20260508022245 53 220 0.0 1.0 0.00 0.04 0.04 84 1013.4
20260508021742 53 228 0.0 0.0 0.00 0.04 0.04 83 1013.5
20260508021238 53 224 0.0 0.0 0.00 0.04 0.04 83 1013.2
20260508020735 54 207 0.0 0.0 0.00 0.04 0.04 83 1013.3
20260508020232 53 311 0.0 0.0 0.00 0.04 0.04 83 1013.1
20260508015729 53 145 0.0 0.0 0.00 0.04 0.04 83 1013.2
20260508015226 54 261 0.0 0.0 0.00 0.04 0.04 83 1013.2
20260508014723 54 156 0.0 1.0 0.00 0.04 0.04 83 1013.1
20260508014220 54 147 0.0 1.0 0.00 0.04 0.04 82 1013.2
20260508013715 54 230 0.0 0.0 0.00 0.04 0.04 82 1012.9
20260508013212 54 230 0.0 0.0 0.00 0.04 0.04 82 1013.1
20260508012710 54 156 0.0 0.0 0.00 0.04 0.04 82 1013.0
20260508012206 54 173 0.0 1.0 0.00 0.04 0.04 82 1012.9
20260508011705 54 339 2.0 2.0 0.00 0.04 0.04 82 1012.8
20260508011202 54 261 0.0 2.0 0.00 0.04 0.04 81 1013.0
20260508010658 54 273 0.0 1.0 0.00 0.04 0.04 81 1012.9
20260508010156 54 251 0.0 1.0 0.00 0.04 0.04 81 1012.8
20260508005653 54 330 0.0 2.0 0.00 0.04 0.04 81 1012.6
20260508005150 54 331 0.0 0.0 0.00 0.04 0.04 80 1012.6
20260508004646 54 159 2.0 2.0 0.00 0.04 0.04 80 1012.8
20260508004142 54 325 0.0 2.0 0.00 0.04 0.04 80 1012.5
20260508003639 54 320 0.0 1.0 0.00 0.04 0.04 80 1012.6
20260508003137 54 330 0.0 1.0 0.00 0.04 0.04 80 1012.6
20260508002633 54 224 1.0 1.0 0.00 0.04 0.04 80 1012.6
20260508002131 54 201 0.0 1.0 0.00 0.04 0.04 80 1012.3
20260508001625 54 223 0.0 4.0 0.00 0.04 0.04 80 1012.1
20260508001122 54 207 0.0 1.0 0.00 0.04 0.04 80 1012.2
20260508000618 54 214 0.0 0.0 0.00 0.04 0.04 80 1012.1
20260508000115 54 306 2.0 2.0 0.00 0.04 0.04 79 1012.0
20260507235613 54 233 0.0 1.0 0.00 0.04 0.04 79 1012.1
20260507235110 54 145 0.0 2.0 0.00 0.04 0.04 79 1012.0
20260507234606 54 20 0.0 1.0 0.00 0.04 0.04 79 1011.9
20260507234102 54 175 0.0 1.0 0.00 0.04 0.04 79 1012.0
20260507233559 54 245 0.0 2.0 0.00 0.04 0.04 78 1012.0
20260507233058 54 124 0.0 0.0 0.00 0.04 0.04 78 1012.0
20260507232553 54 277 0.0 2.0 0.00 0.04 0.04 78 1011.8
20260507232051 54 168 0.0 0.0 0.00 0.04 0.04 78 1011.7
20260507231547 54 145 0.0 1.0 0.00 0.04 0.04 78 1011.7
20260507231045 54 124 0.0 2.0 0.00 0.04 0.04 78 1011.6
20260507230541 55 166 0.0 3.0 0.00 0.04 0.04 77 1011.6
20260507230038 55 11 2.0 2.0 0.00 0.04 0.04 77 1011.7
20260507225533 55 324 2.0 2.0 0.00 0.04 0.04 76 1011.6
20260507225030 55 317 1.0 1.0 0.00 0.04 0.04 76 1011.5
20260507224525 55 266 0.0 2.0 0.00 0.04 0.04 76 1011.4
20260507224022 55 274 2.0 3.0 0.00 0.04 0.04 76 1011.4
20260507223519 56 169 0.0 0.0 0.00 0.04 0.04 77 1011.4
20260507223016 55 81 0.0 1.0 0.00 0.04 0.04 76 1011.2
20260507222513 55 311 0.0 2.0 0.00 0.04 0.04 76 1011.4
20260507222009 56 97 0.0 2.0 0.00 0.04 0.04 76 1011.4
20260507221506 55 329 0.0 2.0 0.00 0.04 0.04 76 1011.4
20260507221002 56 215 0.0 2.0 0.00 0.04 0.04 76 1011.2
20260507220500 56 199 1.0 2.0 0.00 0.04 0.04 75 1011.2
20260507215956 56 295 2.0 3.0 0.00 0.04 0.04 73 1011.1
20260507215452 57 76 0.0 1.0 0.00 0.04 0.04 72 1011.3
20260507214950 57 179 0.0 1.0 0.00 0.04 0.04 72 1011.2
20260507214448 57 330 2.0 2.0 0.00 0.04 0.04 71 1011.3
20260507213943 57 112 1.0 3.0 0.00 0.04 0.04 70 1011.1
20260507213440 57 205 2.0 2.0 0.00 0.04 0.04 71 1011.3
20260507212937 57 256 0.0 4.0 0.00 0.04 0.04 69 1011.2
20260507212432 57 324 1.0 2.0 0.00 0.04 0.04 68 1011.0
20260507211930 57 163 0.0 2.0 0.00 0.04 0.04 68 1011.2
20260507211426 57 58 0.0 0.0 0.00 0.04 0.04 67 1011.2
20260507210923 58 106 2.0 3.0 0.00 0.04 0.04 66 1011.1
20260507210420 58 110 0.0 2.0 0.00 0.04 0.04 65 1010.8
20260507205917 57 196 0.0 2.0 0.00 0.04 0.04 67 1011.0
20260507205414 58 95 2.0 2.0 0.00 0.04 0.04 65 1011.2
20260507204910 58 173 0.0 1.0 0.00 0.04 0.04 68 1011.1
20260507204406 57 19 0.0 2.0 0.00 0.04 0.04 66 1011.0
20260507203904 58 157 2.0 4.0 0.00 0.04 0.04 64 1011.0
20260507203402 58 174 1.0 5.0 0.00 0.04 0.04 63 1011.4
20260507202858 59 124 0.0 2.0 0.00 0.04 0.04 67 1011.0
20260507202355 57 183 2.0 2.0 0.00 0.04 0.04 68 1011.3
20260507201850 56 187 2.0 3.0 0.00 0.04 0.04 69 1011.1
20260507201346 57 128 0.0 3.0 0.00 0.04 0.04 68 1011.4
20260507200842 57 152 3.0 4.0 0.00 0.04 0.04 65 1011.5
20260507200338 57 97 2.0 2.0 0.00 0.04 0.04 65 1011.5
20260507195835 57 114 2.0 4.0 0.00 0.04 0.04 64 1011.5
20260507195332 58 118 2.0 3.0 0.00 0.04 0.04 63 1011.6
20260507194829 57 150 0.0 3.0 0.00 0.04 0.04 66 1011.5
20260507194325 57 131 3.0 3.0 0.00 0.04 0.04 65 1011.7
20260507193822 57 122 0.0 3.0 0.00 0.04 0.04 64 1011.6
20260507193320 58 163 0.0 3.0 0.00 0.04 0.04 62 1011.6
20260507192815 60 76 1.0 4.0 0.00 0.04 0.04 63 1011.9
20260507192312 58 172 1.0 3.0 0.00 0.04 0.04 66 1011.7
20260507191808 57 144 1.0 4.0 0.00 0.04 0.04 64 1012.0
20260507191305 58 115 3.0 3.0 0.00 0.04 0.04 66 1012.1
20260507190802 56 110 0.0 2.0 0.00 0.04 0.04 67 1012.1
20260507190300 56 5 1.0 2.0 0.00 0.04 0.04 68 1011.6
20260507185758 56 113 2.0 3.0 0.00 0.04 0.04 69 1012.0
20260507185255 58 138 0.0 2.0 0.00 0.04 0.04 70 1012.1
20260507184752 57 194 1.0 2.0 0.00 0.04 0.04 69 1012.5
20260507184250 57 58 0.0 3.0 0.00 0.04 0.04 72 1012.5
20260507183747 56 134 0.0 2.0 0.00 0.04 0.04 73 1012.4
20260507183243 55 82 2.0 3.0 0.00 0.04 0.04 69 1012.3
20260507182741 55 151 0.0 1.0 0.00 0.04 0.04 70 1012.1
20260507182236 56 205 0.0 3.0 0.00 0.04 0.04 71 1012.4
20260507181733 55 168 0.0 3.0 0.00 0.04 0.04 72 1012.4
20260507181229 55 167 1.0 1.0 0.00 0.04 0.04 74 1012.5
20260507180726 54 100 0.0 3.0 0.00 0.04 0.04 73 1012.4
20260507180223 55 174 0.0 2.0 0.00 0.04 0.04 75 1012.3
20260507175718 55 175 0.0 1.0 0.00 0.04 0.04 74 1012.6
20260507175215 56 67 1.0 2.0 0.00 0.04 0.04 74 1012.5
20260507174713 56 76 0.0 1.0 0.00 0.04 0.04 74 1012.4
20260507174211 56 192 0.0 2.0 0.02 0.04 0.04 78 1012.2
20260507173708 55 172 0.0 2.0 0.02 0.04 0.04 77 1012.5
20260507173205 55 151 0.0 2.0 0.00 0.04 0.04 75 1012.5
20260507172702 55 115 2.0 2.0 0.00 0.04 0.04 74 1012.6
20260507172159 56 187 1.0 1.0 0.00 0.04 0.04 74 1013.0
20260507171658 55 65 0.0 1.0 0.00 0.04 0.04 73 1012.6
20260507171156 55 171 0.0 1.0 0.00 0.04 0.04 74 1012.6
20260507170653 55 145 0.0 2.0 0.00 0.04 0.04 74 1012.8
20260507170150 55 156 0.0 0.0 0.00 0.04 0.04 77 1013.0
20260507165645 55 129 1.0 2.0 0.00 0.04 0.04 77 1012.9
20260507165142 55 347 0.0 1.0 0.00 0.04 0.04 78 1013.1
20260507164638 54 131 0.0 2.0 0.00 0.04 0.04 76 1013.2
20260507164135 54 277 1.0 2.0 0.00 0.04 0.04 75 1013.2
20260507163632 54 126 2.0 3.0 0.00 0.04 0.04 76 1013.2
20260507163130 54 258 0.0 2.0 0.00 0.04 0.04 78 1013.3
20260507162626 54 236 0.0 2.0 0.00 0.04 0.04 81 1013.2
20260507162122 54 192 1.0 2.0 0.00 0.04 0.04 82 1013.4
20260507161618 54 157 1.0 3.0 0.00 0.04 0.04 82 1013.5
20260507161115 54 128 0.0 2.0 0.02 0.04 0.04 82 1013.6
20260507160612 54 189 0.0 2.0 0.02 0.04 0.04 82 1013.5
20260507160108 54 230 0.0 1.0 0.00 0.04 0.04 82 1013.8
20260507155603 53 145 0.0 1.0 0.07 0.04 0.04 82 1013.9
20260507155101 53 208 1.0 2.0 0.07 0.04 0.04 82 1013.6
20260507154557 53 90 0.0 2.0 0.00 0.02 0.02 82 1013.7
20260507154055 54 134 0.0 1.0 0.00 0.02 0.02 83 1013.9
20260507153551 54 178 0.0 1.0 0.00 0.02 0.02 81 1013.9
20260507153048 54 40 0.0 1.0 0.00 0.02 0.02 81 1014.1
20260507152543 53 294 2.0 4.0 0.00 0.02 0.02 81 1013.9
20260507152040 54 168 0.0 2.0 0.00 0.02 0.02 83 1014.0
20260507151536 54 192 0.0 3.0 0.00 0.02 0.02 83 1013.6
20260507151033 54 256 0.0 2.0 0.00 0.02 0.02 83 1013.5
20260507150530 54 125 0.0 1.0 0.00 0.02 0.02 84 1013.4
20260507150027 54 149 0.0 1.0 0.00 0.02 0.02 83 1013.6
20260507145522 54 210 2.0 2.0 0.00 0.02 0.02 83 1013.4
20260507145020 54 277 0.0 1.0 0.00 0.02 0.02 83 1013.5
20260507144516 54 273 0.0 2.0 0.00 0.02 0.02 82 1013.6
20260507144014 54 121 1.0 2.0 0.00 0.02 0.02 82 1013.9
20260507143511 54 134 0.0 1.0 0.00 0.02 0.02 82 1013.9
20260507143008 54 129 1.0 1.0 0.02 0.02 0.02 82 1013.9
20260507142503 54 151 0.0 2.0 0.02 0.02 0.02 81 1014.0
20260507142001 54 290 0.0 4.0 0.00 0.02 0.02 81 1014.3
20260507141456 54 84 0.0 2.0 0.00 0.02 0.02 80 1014.1
20260507140953 55 349 1.0 2.0 0.00 0.02 0.02 80 1014.0
20260507140450 55 126 0.0 3.0 0.00 0.02 0.02 79 1014.2
20260507135948 55 320 1.0 2.0 0.00 0.02 0.02 78 1014.2
20260507135444 55 43 0.0 2.0 0.00 0.02 0.02 78 1014.0
20260507134942 55 6 0.0 2.0 0.00 0.02 0.02 78 1014.1
20260507134438 55 121 0.0 2.0 0.00 0.02 0.02 78 1013.9
20260507133934 55 110 0.0 2.0 0.00 0.02 0.02 78 1014.2
20260507133430 55 116 1.0 2.0 0.00 0.02 0.02 77 1014.0
20260507132929 55 347 2.0 2.0 0.00 0.02 0.02 77 1014.3
20260507132425 55 190 0.0 3.0 0.00 0.02 0.02 77 1014.2
20260507131921 55 282 3.0 3.0 0.00 0.02 0.02 77 1014.2
20260507131418 55 151 2.0 3.0 0.00 0.02 0.02 77 1014.1
20260507130915 55 121 0.0 1.0 0.00 0.02 0.02 78 1014.1
20260507130412 55 324 0.0 3.0 0.00 0.02 0.02 77 1014.0
20260507125911 55 7 0.0 2.0 0.00 0.02 0.02 78 1013.6
20260507125409 55 355 1.0 3.0 0.00 0.02 0.02 78 1014.1
20260507124906 55 81 0.0 2.0 0.00 0.02 0.02 78 1013.9
20260507124401 55 86 1.0 2.0 0.00 0.02 0.02 78 1013.8
20260507123900 55 168 0.0 2.0 0.00 0.02 0.02 79 1013.8
20260507123357 55 325 1.0 2.0 0.00 0.02 0.02 79 1013.6
20260507122853 55 84 0.0 2.0 0.00 0.02 0.02 79 1013.7
20260507122349 55 170 1.0 2.0 0.00 0.02 0.02 80 1013.9
20260507121845 55 187 1.0 1.0 0.00 0.02 0.02 80 1013.8
20260507121341 55 35 0.0 1.0 0.00 0.02 0.02 80 1013.9
20260507120838 55 110 2.0 3.0 0.00 0.02 0.02 80 1013.7
20260507120334 55 134 2.0 3.0 0.00 0.02 0.02 80 1013.5
20260507115831 55 89 0.0 2.0 0.00 0.02 0.02 81 1013.8
20260507115326 55 354 0.0 2.0 0.00 0.02 0.02 81 1013.8
20260507114822 55 135 2.0 2.0 0.00 0.02 0.02 81 1013.6
20260507114320 55 178 0.0 0.0 0.00 0.02 0.02 81 1013.5
20260507113817 55 76 0.0 0.0 0.00 0.02 0.02 81 1013.2
20260507113314 55 85 2.0 2.0 0.00 0.02 0.02 81 1013.3
20260507112811 54 85 0.0 2.0 0.00 0.02 0.02 81 1013.4
20260507112308 54 327 0.0 2.0 0.00 0.02 0.02 82 1013.4
20260507111806 54 48 1.0 2.0 0.00 0.02 0.02 82 1013.3
20260507111302 54 338 0.0 1.0 0.00 0.02 0.02 82 1013.3
20260507110758 54 97 0.0 2.0 0.00 0.02 0.02 82 1013.0
20260507110255 54 328 0.0 3.0 0.00 0.02 0.02 82 1013.1
20260507105752 54 75 2.0 2.0 0.00 0.02 0.02 83 1012.8
20260507105248 54 313 3.0 4.0 0.00 0.02 0.02 83 1012.7
20260507104745 54 89 0.0 2.0 0.00 0.02 0.02 83 1012.8
20260507104242 54 16 1.0 3.0 0.00 0.02 0.02 84 1012.8
20260507103738 54 98 2.0 2.0 0.00 0.02 0.02 84 1012.6
20260507103234 54 123 1.0 1.0 0.00 0.02 0.02 84 1012.7
20260507102730 54 225 0.0 3.0 0.00 0.02 0.02 84 1012.9
20260507102227 54 305 0.0 3.0 0.00 0.02 0.02 84 1012.8
20260507101723 54 228 0.0 3.0 0.00 0.02 0.02 84 1013.0
20260507101219 54 103 1.0 2.0 0.00 0.02 0.02 84 1012.7
20260507100716 54 241 0.0 2.0 0.00 0.02 0.02 85 1012.7
20260507100215 54 234 0.0 1.0 0.00 0.02 0.02 85 1012.9
20260507095712 54 342 0.0 2.0 0.00 0.02 0.02 85 1013.2
20260507095208 54 233 2.0 3.0 0.00 0.02 0.02 85 1012.8
20260507094705 55 240 0.0 2.0 0.00 0.02 0.02 85 1012.6
20260507094202 55 193 0.0 1.0 0.00 0.02 0.02 86 1012.3
20260507093659 55 80 4.0 4.0 0.00 0.02 0.02 86 1012.3
20260507093158 55 195 0.0 4.0 0.00 0.02 0.02 86 1012.3
20260507092654 55 147 1.0 2.0 0.00 0.02 0.02 87 1012.3
20260507092151 55 121 0.0 1.0 0.00 0.02 0.02 87 1012.7
20260507091647 55 290 0.0 3.0 0.00 0.02 0.02 87 1012.7
20260507091144 55 2 2.0 3.0 0.00 0.02 0.02 88 1012.7
20260507090639 55 123 0.0 2.0 0.00 0.02 0.02 88 1012.8
20260507090137 55 74 1.0 2.0 0.00 0.02 0.02 89 1012.8
20260507085634 55 76 1.0 2.0 0.00 0.02 0.02 89 1012.4
20260507085130 55 277 0.0 2.0 0.00 0.02 0.02 89 1012.3
20260507084627 55 149 3.0 3.0 0.00 0.02 0.02 89 1012.4
20260507084124 56 286 2.0 3.0 0.00 0.02 0.02 89 1012.3
20260507083621 56 99 3.0 4.0 0.00 0.02 0.02 90 1012.2
20260507083118 56 169 0.0 4.0 0.00 0.02 0.02 90 1012.3
20260507082613 56 256 0.0 0.0 0.00 0.02 0.02 90 1012.2
20260507082110 56 164 2.0 2.0 0.00 0.02 0.02 90 1012.0
20260507081607 56 245 0.0 0.0 0.00 0.02 0.02 90 1011.9
20260507081103 57 325 0.0 1.0 0.00 0.02 0.02 90 1011.8
20260507080559 57 320 0.0 2.0 0.00 0.02 0.02 91 1012.0
20260507080056 56 50 0.0 2.0 0.00 0.02 0.02 91 1012.1
20260507075551 56 208 0.0 3.0 0.00 0.02 0.02 91 1011.9
20260507075048 57 106 3.0 3.0 0.00 0.02 0.02 91 1012.0
20260507074544 57 138 1.0 2.0 0.00 0.02 0.02 91 1012.0
20260507074043 57 300 2.0 2.0 0.00 0.02 0.02 91 1012.2
20260507073539 57 110 0.0 3.0 0.00 0.02 0.02 91 1012.1
20260507073035 57 281 0.0 3.0 0.00 0.02 0.02 91 1011.5
20260507072533 57 65 0.0 1.0 0.00 0.02 0.02 92 1011.6
20260507072030 58 62 0.0 2.0 0.00 0.02 0.02 92 1011.3
20260507071527 58 281 2.0 4.0 0.00 0.02 0.02 92 1011.3
20260507071024 58 92 2.0 4.0 0.00 0.02 0.02 92 1011.3
20260507070521 59 47 1.0 1.0 0.00 0.02 0.02 92 1011.3
20260507070018 59 71 0.0 1.0 0.00 0.02 0.02 92 1011.1
20260507065514 59 309 2.0 3.0 0.00 0.02 0.02 92 1010.7
20260507065012 60 315 3.0 4.0 0.00 0.02 0.02 92 1011.0
20260507064509 60 128 4.0 5.0 0.00 0.02 0.02 92 1010.9
20260507064008 61 64 0.0 2.0 0.00 0.02 0.02 92 1011.2
20260507063504 62 118 2.0 2.0 0.00 0.02 0.02 92 1011.3
20260507063002 63 65 3.0 4.0 0.00 0.02 0.02 92 1011.4
20260507062458 63 53 1.0 1.0 0.00 0.02 0.02 92 1011.6
20260507061955 63 134 0.0 1.0 0.00 0.02 0.02 92 1011.6
20260507061453 64 58 0.0 2.0 0.00 0.02 0.02 92 1011.4
20260507060952 64 110 0.0 2.0 0.00 0.02 0.02 92 1011.4
20260507060448 64 314 0.0 1.0 0.00 0.02 0.02 92 1011.3
20260507055945 64 14 0.0 2.0 0.00 0.02 0.02 92 1011.2
20260507055440 64 336 0.0 0.0 0.00 0.02 0.02 92 1011.5
20260507054937 64 336 0.0 1.0 0.00 0.02 0.02 92 1011.2
20260507054433 64 317 0.0 1.0 0.00 0.02 0.02 92 1011.2
20260507053931 64 58 0.0 1.0 0.00 0.02 0.02 92 1011.1
20260507053428 64 320 0.0 2.0 0.00 0.02 0.02 91 1011.2
20260507052926 64 318 1.0 2.0 0.00 0.02 0.02 91 1010.8
20260507052423 64 319 0.0 1.0 0.00 0.02 0.02 91 1010.4
20260507051920 64 110 0.0 0.0 0.00 0.02 0.02 91 1009.9
20260507051418 64 110 0.0 0.0 0.00 0.02 0.02 91 1009.9
20260507050915 64 21 0.0 0.0 0.02 0.02 0.02 91 1010.0
20260507050411 64 21 0.0 0.0 0.02 0.02 0.02 90 1010.1